EW8473 Weather Reports


time (UTC)temp
C
wind
direction
speed
KPH
gust
KPH
rain 1hr
cm
rain 24hr
cm
rain mn
cm
humidity
%
barometer
mb
20260504235057 23 217 3.2 14.5 0.00 0.00 0.00 48 1014.6
20260504234558 23 232 9.7 14.5 0.00 0.00 0.00 47 1014.8
20260504234054 24 252 4.8 14.5 0.00 0.00 0.00 47 1014.7
20260504233553 24 221 4.8 14.5 0.00 0.00 0.00 46 1014.8
20260504233109 24 234 4.8 14.5 0.00 0.00 0.00 46 1014.8
20260504232550 24 251 3.2 20.9 0.00 0.00 0.00 45 1014.7
20260504232051 25 240 12.9 20.9 0.00 0.00 0.00 45 1014.8
20260504231546 25 234 4.8 12.9 0.00 0.00 0.00 44 1014.8
20260504231045 25 187 4.8 19.3 0.00 0.00 0.00 44 1015.0
20260504230544 25 98 8.0 19.3 0.00 0.00 0.00 43 1014.9
20260504230042 25 230 4.8 16.1 0.00 0.00 0.00 43 1014.9
20260504225541 25 234 3.2 16.1 0.00 0.00 0.00 43 1015.0
20260504225040 25 218 8.0 16.1 0.00 0.00 0.00 42 1015.0
20260504224542 25 188 4.8 12.9 0.00 0.00 0.00 41 1015.1
20260504224036 25 198 6.4 12.9 0.00 0.00 0.00 41 1015.2
20260504223535 25 181 3.2 12.9 0.00 0.00 0.00 42 1015.2
20260504223034 25 254 4.8 17.7 0.00 0.00 0.00 42 1015.1
20260504222532 25 155 4.8 17.7 0.00 0.00 0.00 41 1015.2
20260504222030 25 184 4.8 22.5 0.00 0.00 0.00 42 1015.3
20260504221529 25 188 8.0 19.3 0.00 0.00 0.00 42 1015.5
20260504221028 25 261 6.4 22.5 0.00 0.00 0.00 41 1015.6
20260504220526 25 211 8.0 14.5 0.00 0.00 0.00 42 1015.6
20260504220024 25 243 8.0 24.1 0.00 0.00 0.00 41 1015.4
20260504215523 25 223 11.3 24.1 0.00 0.00 0.00 41 1015.4
20260504215022 25 203 8.0 17.7 0.00 0.00 0.00 41 1015.3
20260504214520 25 207 8.0 16.1 0.00 0.00 0.00 40 1015.4
20260504214018 25 254 8.0 16.1 0.00 0.00 0.00 38 1015.5
20260504213517 25 202 8.0 22.5 0.00 0.00 0.00 38 1015.4
20260504213015 26 237 8.0 22.5 0.00 0.00 0.00 39 1015.4
20260504212514 26 223 12.9 22.5 0.00 0.00 0.00 39 1015.6
20260504212013 26 200 9.7 20.9 0.00 0.00 0.00 38 1015.7
20260504211511 26 199 8.0 22.5 0.00 0.00 0.00 37 1015.6
20260504211009 26 270 11.3 22.5 0.00 0.00 0.00 36 1015.4
20260504210508 26 149 8.0 17.7 0.00 0.00 0.00 35 1015.5
20260504210015 26 247 6.4 19.3 0.00 0.00 0.00 38 1015.5
20260504205505 26 213 6.4 19.3 0.00 0.00 0.00 37 1015.7
20260504205003 26 101 4.8 14.5 0.00 0.00 0.00 38 1015.7
20260504204501 26 217 3.2 22.5 0.00 0.00 0.00 37 1015.8
20260504204101 26 210 8.0 22.5 0.00 0.00 0.00 36 1015.9
20260504203600 26 250 9.7 25.7 0.00 0.00 0.00 37 1015.9
20260504203101 26 221 12.9 25.7 0.00 0.00 0.00 38 1016.0
20260504202555 26 186 4.8 25.7 0.00 0.00 0.00 37 1016.2
20260504202058 26 274 12.9 25.7 0.00 0.00 0.00 38 1016.3
20260504201553 26 145 6.4 19.3 0.00 0.00 0.00 37 1016.3
20260504201053 26 170 4.8 27.4 0.00 0.00 0.00 37 1016.3
20260504200550 26 243 9.7 27.4 0.00 0.00 0.00 38 1016.5
20260504200048 26 180 11.3 19.3 0.00 0.00 0.00 37 1016.6
20260504195546 26 215 6.4 30.6 0.00 0.00 0.00 38 1016.7
20260504195045 26 275 12.9 30.6 0.00 0.00 0.00 37 1016.8
20260504194548 26 250 4.8 16.1 0.00 0.00 0.00 38 1016.8
20260504194043 26 219 9.7 22.5 0.00 0.00 0.00 38 1016.9
20260504193541 26 232 11.3 22.5 0.00 0.00 0.00 38 1016.8
20260504193039 26 290 9.7 24.1 0.00 0.00 0.00 38 1016.9
20260504192538 26 275 9.7 22.5 0.00 0.00 0.00 37 1017.0
20260504192036 26 267 11.3 20.9 0.00 0.00 0.00 38 1017.0
20260504191535 26 186 9.7 17.7 0.00 0.00 0.00 37 1016.9
20260504191034 26 275 8.0 20.9 0.00 0.00 0.00 37 1017.0
20260504190532 26 256 4.8 16.1 0.00 0.00 0.00 38 1017.1
20260504190030 26 168 8.0 16.1 0.00 0.00 0.00 39 1017.2
20260504185528 26 111 8.0 17.7 0.00 0.00 0.00 38 1017.1
20260504185026 26 92 6.4 20.9 0.00 0.00 0.00 38 1017.2
20260504184526 26 159 8.0 20.9 0.00 0.00 0.00 39 1017.4
20260504184024 26 200 4.8 17.7 0.00 0.00 0.00 40 1017.5
20260504183522 26 256 6.4 17.7 0.00 0.00 0.00 40 1017.5
20260504183020 26 157 6.4 14.5 0.00 0.00 0.00 39 1017.5
20260504182519 26 132 3.2 9.7 0.00 0.00 0.00 40 1017.6
20260504182018 25 98 3.2 17.7 0.00 0.00 0.00 40 1017.6
20260504181517 25 174 8.0 17.7 0.00 0.00 0.00 40 1017.6
20260504181019 26 171 9.7 16.1 0.00 0.00 0.00 39 1017.6
20260504180514 26 217 6.4 16.1 0.00 0.00 0.00 40 1017.5
20260504180012 26 318 1.6 17.7 0.00 0.00 0.00 39 1017.6
20260504175513 26 187 4.8 22.5 0.00 0.00 0.00 41 1017.6
20260504175015 26 129 6.4 22.5 0.00 0.00 0.00 40 1017.8
20260504174510 26 254 6.4 17.7 0.00 0.00 0.00 41 1017.8
20260504174006 25 259 8.0 16.1 0.00 0.00 0.00 42 1017.8
20260504173506 25 227 4.8 17.7 0.00 0.00 0.00 41 1017.8
20260504173005 25 257 6.4 17.7 0.00 0.00 0.00 41 1017.8
20260504172502 25 128 3.2 16.1 0.00 0.00 0.00 39 1017.6
20260504172100 25 197 1.6 19.3 0.00 0.00 0.00 39 1017.7
20260504171559 25 132 8.0 19.3 0.00 0.00 0.00 39 1017.9
20260504171058 25 190 8.0 17.7 0.00 0.00 0.00 38 1017.8
20260504170558 25 242 3.2 17.7 0.00 0.00 0.00 38 1017.7
20260504151022 24 207 4.8 9.7 0.00 0.00 0.00 42 1018.5
20260504150522 24 140 3.2 11.3 0.00 0.00 0.00 41 1018.4
20260504141004 21 303 1.6 9.7 0.00 0.00 0.00 53 1018.7
20260504140503 21 281 0.0 4.8 0.00 0.00 0.00 53 1018.5
20260504130545 18 315 0.0 3.2 0.00 0.00 0.00 8 1018.6
20260504110511 15 223 0.0 0.0 0.00 0.00 0.00 1 1017.8
20260504100557 15 223 0.0 0.0 0.00 0.00 0.00 1 1018.0
20260504081521 15 221 0.0 0.0 0.00 0.00 0.00 1 1017.7
20260504081020 15 221 0.0 0.0 0.00 0.00 0.00 1 1017.8
20260504080518 15 221 0.0 0.0 0.00 0.00 0.00 1 1017.8
20260504050528 17 220 0.0 4.8 0.00 0.00 0.00 30 1019.5
20260504045525 17 218 1.6 3.2 0.00 0.00 0.00 35 1019.5
20260504045023 17 217 0.0 4.8 0.00 0.00 0.00 34 1019.5
20260504044524 17 217 0.0 4.8 0.00 0.00 0.00 34 1019.6
20260504044020 17 217 0.0 3.2 0.00 0.00 0.00 35 1019.6
20260504043519 17 217 0.0 4.8 0.00 0.00 0.00 33 1019.7
20260504043023 17 217 1.6 4.8 0.00 0.00 0.00 37 1019.7
20260504042515 17 215 0.0 0.0 0.00 0.00 0.00 39 1019.7
20260504042014 17 215 0.0 0.0 0.00 0.00 0.00 42 1019.7
20260504041515 17 215 0.0 1.6 0.00 0.00 0.00 44 1019.7
20260504041012 18 215 0.0 0.0 0.00 0.00 0.00 45 1019.6
20260504040511 18 215 0.0 0.0 0.00 0.00 0.00 47 1019.6
20260504040013 18 215 0.0 1.6 0.00 0.00 0.00 48 1019.6
20260504035508 18 215 0.0 3.2 0.00 0.00 0.00 49 1019.5
20260504035005 18 215 0.0 3.2 0.00 0.00 0.00 51 1019.5
20260504034504 18 218 0.0 4.8 0.00 0.00 0.00 52 1019.6
20260504034006 18 217 0.0 3.2 0.00 0.00 0.00 54 1019.7
20260504033502 18 217 0.0 3.2 0.00 0.00 0.00 55 1019.6
20260504033101 18 217 0.0 4.8 0.00 0.00 0.00 55 1019.6
20260504032601 18 217 0.0 4.8 0.00 0.00 0.00 56 1019.7
20260504032058 18 221 0.0 6.4 0.00 0.00 0.00 56 1019.7
20260504031557 18 219 1.6 6.4 0.00 0.00 0.00 56 1019.7
20260504031054 18 229 1.6 6.4 0.00 0.00 0.00 57 1019.7
20260504030553 18 230 0.0 6.4 0.00 0.00 0.00 57 1019.7
20260504030052 18 212 1.6 4.8 0.00 0.00 0.00 57 1019.6
20260504025552 18 211 0.0 4.8 0.00 0.00 0.00 57 1019.6
20260504025049 19 209 0.0 3.2 0.00 0.00 0.00 56 1019.5
20260504024547 19 209 0.0 1.6 0.00 0.00 0.00 55 1019.5
20260504024045 19 209 0.0 3.2 0.00 0.00 0.00 55 1019.4
20260504023544 19 209 0.0 4.8 0.00 0.00 0.00 54 1019.5
20260504023043 19 209 0.0 4.8 0.00 0.00 0.00 53 1019.4
20260504022542 19 208 0.0 4.8 0.00 0.00 0.00 53 1019.4
20260504022039 20 208 0.0 4.8 0.00 0.00 0.00 53 1019.3
20260504021540 20 208 1.6 4.8 0.00 0.00 0.00 52 1019.3
20260504021042 20 178 0.0 4.8 0.00 0.00 0.00 51 1019.2
20260504020536 20 177 0.0 4.8 0.00 0.00 0.00 51 1019.1
20260504020036 20 166 0.0 4.8 0.00 0.00 0.00 50 1019.0
20260504015532 20 178 0.0 3.2 0.00 0.00 0.00 50 1019.0
20260504015032 20 178 0.0 4.8 0.00 0.00 0.00 49 1019.0
20260504014537 20 180 1.6 4.8 0.00 0.00 0.00 48 1019.0
20260504014027 20 169 1.6 6.4 0.00 0.00 0.00 48 1018.9
20260504013526 21 184 1.6 6.4 0.00 0.00 0.00 47 1018.9
20260504013025 21 196 0.0 4.8 0.00 0.00 0.00 47 1018.9
20260504012526 21 185 0.0 6.4 0.00 0.00 0.00 46 1018.9
20260504012022 21 189 1.6 6.4 0.00 0.00 0.00 46 1018.9
20260504011523 21 140 1.6 6.4 0.00 0.00 0.00 45 1018.8
20260504011018 21 183 0.0 3.2 0.00 0.00 0.00 44 1018.7
20260504010517 22 204 0.0 8.0 0.00 0.00 0.00 44 1018.7
20260504010016 22 209 3.2 8.0 0.00 0.00 0.00 43 1018.7
20260504005514 22 218 1.6 8.0 0.00 0.00 0.00 43 1018.6
20260504005016 23 222 3.2 8.0 0.00 0.00 0.00 42 1018.6
20260504004511 23 211 1.6 9.7 0.00 0.00 0.00 40 1018.6
20260504004010 23 28 0.0 0.0 0.00 0.00 0.00 40 1018.5
20260504003508 24 20 0.0 1.6 0.00 0.00 0.00 39 1018.5
20260504003007 24 360 0.0 1.6 0.00 0.00 0.00 38 1018.5
20260504002505 24 360 0.0 1.6 0.00 0.00 0.00 39 1018.5
20260504002006 24 9 0.0 3.2 0.00 0.00 0.00 38 1018.3
20260504001503 25 9 0.0 6.4 0.00 0.00 0.00 37 1018.3
20260504001001 25 303 1.6 8.0 0.00 0.00 0.00 37 1018.3
20260504000559 25 336 0.0 8.0 0.00 0.00 0.00 37 1018.3
20260504000125 25 355 0.0 4.8 0.00 0.00 0.00 37 1018.3
20260503235557 25 22 0.0 4.8 0.00 0.00 0.00 37 1018.3